Other Surface Observations
Issued by NWS

Home | Current Version | Previous Version | Text Only | Print | Product List | Glossary On
Versions: 1 2 3 4 5 6 7 8 9 10 11 12 13 14 15 16 17 18 19 20 21 22 23 24 25 26 27 28 29 30 31 32 33 34 35 36 37 38 39 40 41 42 43 44 45 46 47 48 49 50
293
SXUS52 KTAE 211006
OSOTAE
OSOTAE
North Florida/South Alabama/Southwest Georgia Weather Roundup
National Weather Service Tallahassee Florida
500 AM EST SAT JAN 21 2017

Note: "fair" indicates few or no clouds below 12,000 feet with no
significant weather and/or obstructions to visibility.

!FLZ017-115-028-034-025-211100
...North Florida...

CITY           SKY/WX    TMP DP  RH WIND       PRES   REMARKS
TALLAHASSEE    CLOUDY    68  67  96 SE7       29.84F
APALACHICOLA   CLOUDY    70  70 100 S9        29.84F
PERRY          CLOUDY    70  68  95 S5        29.89F
CROSS CITY     CLOUDY    68  66  94 S8        29.90F FOG
JACKSONVILLE   CLOUDY    67  67 100 SW9       29.90F FOG
$$

!FLZ112-006-005-002-011-211100
...Florida Panhandle...

CITY           SKY/WX    TMP DP  RH WIND       PRES   REMARKS
MARIANNA       CLOUDY    68  66  93 S7        29.80F
BONIFAY        NOT AVBL
PANAMA CITY NW CLOUDY    69  67  93 SE7       29.80F
TYNDALL AFB    MOCLDY    69  69  97 SE10      29.81F
TYND DRONE APT PTSUNNY   70  70 100 SE12      29.81F
DE FUNIAK SPR  CLOUDY    68  68 100 S12       29.77F
EGLIN AFB      CLOUDY    71  70  96 S17       29.76F
DESTIN         CLOUDY    75  75 100 S13G21    29.76F
HURLBURT       MOCLDY    71  63  75 S16       29.74F
CRESTVIEW      CLOUDY    70  68  93 S7        29.77F
PENSACOLA      CLOUDY    72  69  90 S21G28    29.72F
$$

!ALZ063-066-211100
...South Alabama...

CITY           SKY/WX    TMP DP  RH WIND       PRES   REMARKS
DOTHAN         HVY RAIN  67  67 100 S10       29.83F FOG
OZARK CAIRNS   LGT RAIN  68  68 100 SE6       29.76F
FT RUCKER HELI CLOUDY    68  66  93 SE5       29.76F
RUCKER HELI 3  NOT AVBL
RUCKER HELI 2  HVY RAIN  68  67  96 SE6       29.76F FOG
FLORALA APT    LGT RAIN  68  66  93 S9        29.77F
ANDALUSIA      CLOUDY    70  66  87 VRB7      29.74F
TROY           CLOUDY    67  67 100 SE7       29.76F
EUFALA         TSTM      68  66  93 SE5       29.78F FOG
MOBILE         CLOUDY    72  68  87 S18G24    29.70F
$$

!GAZ120>161-211100
...Southwest and South Central Georgia...

CITY           SKY/WX    TMP DP  RH WIND       PRES   REMARKS
THOMASVILLE    CLOUDY    70  70 100 S7        29.84F
BAINBRIDGE     PTCLDY    66  63  88 S5        29.82F
MOODY AFB      CLOUDY    70  68  95 S12       29.85F
VALDOSTA       LGT RAIN  69  69 100 SW8       29.87F FOG
MOULTRIE       CLOUDY    70  68  94 S9        29.84F
BLAKELY        CLOUDY    70  68  94 CALM      29.82F
ALBANY         LGT RAIN  68  68 100 CALM      29.85F FOG
TIFTON         CLOUDY    68  68 100 S7        29.84F
FITZGERALD     CLOUDY    70  70 100 CALM      29.88F
CORDELE        CLOUDY    69  68  98 CALM      29.85F FOG
AMERICUS       CLOUDY    66  66 100 CALM      29.86F FOG
HOMERVILLE     CLOUDY    70  70 100 SW6       29.88F
$$

!GMZ750-755-770-775-211100
...Coastal and Buoy Obs...

STATION/POSITION TIME  TEMP    WIND        PRES    VSBY  WAVE
                       AIR SEA DIR/SP/G                  HT/PER
                 (UTC) (F)     (DEG/KT/KT) (MB)    (MI)  (FT/S)
KEATON BEACH     1000   67     160/ 11/ 12 1011.7F
CEDAR KEY        0900   67     190/ 11/ 12 1013.6F
C TOWER          1000   71     190/ 17/ 18 1010.9F
APALACHICOLA BUO 0850   75 72  190/ 14/ 16 1011.7          3/ 5
PANAMA CITY BUOY 0850   76 75              1010.5          4/ 6
MOBILE BUOY      NOT AVBL
ORANGE BCH AL BU 0850   70 66  180/ 14/ 16 1007.9          3/ 6
$$




USA.gov is the U.S. government's official web portal to all federal, state and local government web resources and services.